W7MKM-13 Weather Reports


Display with metric or nautical units.
time (UTC)temp
F
wind
direction
speed
MPH
gust
MPH
rain 1hr
in
rain 24hr
in
rain mn
in
humidity
%
barometer
mb
20260502130516 49 203 1.0 7.0 0.00 0.00 0.00 53 1021.6
20260502123516 49 203 1.0 4.0 0.00 0.00 0.00 56 1021.8
20260502123016 49 0.0 2.0 0.00 0.00 0.00 56 1021.8
20260502122516 49 0.0 2.0 0.00 0.00 0.00 55 1021.7
20260502122015 49 0.0 3.0 0.00 0.00 0.00 54 1021.7
20260502121516 48 0.0 5.0 0.00 0.00 0.00 54 1021.8
20260502121015 48 0.0 4.0 0.00 0.00 0.00 53 1021.8
20260502120516 48 0.0 3.0 0.00 0.00 0.00 54 1021.7
20260502115516 47 0.0 2.0 0.00 0.00 0.00 54 1021.4
20260502115016 47 0.0 1.0 0.00 0.00 0.00 54 1021.4
20260502114016 48 0.0 1.0 0.00 0.00 0.00 51 1021.7
20260502113516 48 0.0 0.0 0.00 0.00 0.00 51 1021.7
20260502113015 49 0.0 0.0 0.00 0.00 0.00 51 1021.6
20260502112516 49 0.0 0.0 0.00 0.00 0.00 51 1021.7
20260502112015 49 0.0 2.0 0.00 0.00 0.00 51 1021.7
20260502111515 49 225 1.0 6.0 0.00 0.00 0.00 51 1021.8
20260502111016 49 0.0 3.0 0.00 0.00 0.00 51 1021.8
20260502110515 50 0.0 3.0 0.00 0.00 0.00 51 1021.8
20260502110016 50 0.0 2.0 0.00 0.00 0.00 50 1022.2
20260502105516 50 225 1.0 4.0 0.00 0.00 0.00 50 1022.1
20260502105016 50 0.0 3.0 0.00 0.00 0.00 50 1022.1
20260502104516 50 0.0 5.0 0.00 0.00 0.00 49 1022.1
20260502104016 50 225 1.0 6.0 0.00 0.00 0.00 51 1022.1
20260502103515 49 225 1.0 5.0 0.00 0.00 0.00 52 1021.8
20260502103016 49 0.0 4.0 0.00 0.00 0.00 52 1021.8
20260502102515 49 0.0 0.0 0.00 0.00 0.00 51 1021.8
20260502102016 49 0.0 1.0 0.00 0.00 0.00 50 1021.8
20260502101516 49 0.0 1.0 0.00 0.00 0.00 50 1021.8
20260502101016 49 0.0 2.0 0.00 0.00 0.00 50 1021.7
20260502100516 48 0.0 1.0 0.00 0.00 0.00 51 1021.7
20260502091516 43 0.0 0.0 0.00 0.00 0.00 61 1020.7
20260502091016 43 0.0 0.0 0.00 0.00 0.00 61 1020.7
20260502090516 44 0.0 0.0 0.00 0.00 0.00 61 1020.7
20260502071516 46 0.0 0.0 0.00 0.00 0.00 55 1021.0
20260502071015 46 0.0 0.0 0.00 0.00 0.00 55 1020.9
20260502070515 46 0.0 0.0 0.00 0.00 0.00 56 1021.0
20260502070016 46 0.0 0.0 0.00 0.00 0.00 56 1021.1
20260502065515 46 0.0 0.0 0.00 0.00 0.00 55 1021.0
20260502065016 47 0.0 0.0 0.00 0.00 0.00 55 1021.0
20260502064516 47 0.0 0.0 0.00 0.00 0.00 53 1020.9
20260502064016 47 0.0 0.0 0.00 0.00 0.00 53 1020.9
20260502063516 48 0.0 0.0 0.00 0.00 0.00 53 1020.9
20260502063016 48 0.0 0.0 0.00 0.00 0.00 52 1021.2
20260502062516 48 0.0 0.0 0.00 0.00 0.00 51 1021.2
20260502062016 48 0.0 0.0 0.00 0.00 0.00 50 1020.9
20260502061516 48 0.0 0.0 0.00 0.00 0.00 49 1020.9
20260502061016 49 0.0 0.0 0.00 0.00 0.00 48 1021.1
20260502060515 49 0.0 0.0 0.00 0.00 0.00 48 1021.0
20260502060015 49 0.0 0.0 0.00 0.00 0.00 47 1021.0
20260502055516 49 0.0 0.0 0.00 0.00 0.00 47 1021.0
20260502055016 49 0.0 0.0 0.00 0.00 0.00 47 1020.7
20260502054516 49 0.0 0.0 0.00 0.00 0.00 47 1020.6
20260502054016 50 0.0 0.0 0.00 0.00 0.00 47 1020.9
20260502053516 50 0.0 0.0 0.00 0.00 0.00 46 1020.9
20260502053016 50 0.0 0.0 0.00 0.00 0.00 45 1020.8
20260502052516 50 0.0 0.0 0.00 0.00 0.00 45 1020.8
20260502052016 51 0.0 0.0 0.00 0.00 0.00 43 1020.6
20260502051516 51 0.0 0.0 0.00 0.00 0.00 44 1020.6
20260502051016 51 0.0 0.0 0.00 0.00 0.00 43 1020.5
20260502050516 52 0.0 0.0 0.00 0.00 0.00 43 1020.6
20260502050016 52 0.0 0.0 0.00 0.00 0.00 43 1021.0
20260502045505 52 0.0 0.0 0.00 0.00 0.00 41 1020.9
20260502045016 52 0.0 0.0 0.00 0.00 0.00 41 1020.9
20260502044516 52 0.0 0.0 0.00 0.00 0.00 40 1020.6
20260502044016 53 0.0 0.0 0.00 0.00 0.00 40 1020.9
20260502043516 53 0.0 0.0 0.00 0.00 0.00 39 1020.9
20260502043016 53 0.0 0.0 0.00 0.00 0.00 38 1020.8
20260502042516 54 0.0 0.0 0.00 0.00 0.00 37 1020.7
20260502042016 55 0.0 0.0 0.00 0.00 0.00 35 1021.0
20260502041516 55 0.0 0.0 0.00 0.00 0.00 34 1020.3
20260502041016 55 0.0 0.0 0.00 0.00 0.00 33 1020.3
20260502040516 56 0.0 0.0 0.00 0.00 0.00 33 1020.2
20260502040016 56 0.0 0.0 0.00 0.00 0.00 33 1020.5
20260502035516 56 0.0 0.0 0.00 0.00 0.00 32 1020.4
20260502035016 57 0.0 0.0 0.00 0.00 0.00 32 1020.3
20260502034516 57 0.0 0.0 0.00 0.00 0.00 32 1020.4
20260502034016 57 0.0 0.0 0.00 0.00 0.00 32 1020.3
20260502033516 57 0.0 0.0 0.00 0.00 0.00 32 1020.2
20260502033016 57 0.0 0.0 0.00 0.00 0.00 32 1020.1
20260502032516 57 0.0 0.0 0.00 0.00 0.00 32 1020.1
20260502032016 57 0.0 0.0 0.00 0.00 0.00 33 1020.0
20260502031516 58 0.0 0.0 0.00 0.00 0.00 31 1019.4
20260502031016 58 0.0 0.0 0.00 0.00 0.00 31 1019.6
20260502030516 58 0.0 0.0 0.00 0.00 0.00 31 1019.5
20260502030016 59 0.0 0.0 0.00 0.00 0.00 30 1019.4
20260502025516 59 0.0 0.0 0.00 0.00 0.00 30 1019.3
20260502025016 59 0.0 0.0 0.00 0.00 0.00 29 1019.2
20260502024516 60 0.0 0.0 0.00 0.00 0.00 28 1019.5
20260502024016 60 0.0 0.0 0.00 0.00 0.00 28 1018.8
20260502023516 60 0.0 0.0 0.00 0.00 0.00 27 1018.8
20260502023016 61 0.0 0.0 0.00 0.00 0.00 27 1018.8
20260502022516 61 338 1.0 3.0 0.00 0.00 0.00 27 1019.0
20260502022016 61 338 2.0 4.0 0.00 0.00 0.00 26 1018.9
20260502021516 61 338 3.0 5.0 0.00 0.00 0.00 26 1019.0
20260502021016 62 338 3.0 7.0 0.00 0.00 0.00 26 1018.3
20260502020516 62 338 4.0 9.0 0.00 0.00 0.00 26 1018.6
20260502020016 62 338 3.0 7.0 0.00 0.00 0.00 26 1018.6
20260502015516 62 338 4.0 7.0 0.00 0.00 0.00 26 1018.6
20260502015016 63 338 6.0 10.0 0.00 0.00 0.00 25 1018.5
20260502014516 63 315 6.0 9.0 0.00 0.00 0.00 25 1018.4
20260502014016 63 315 4.0 9.0 0.00 0.00 0.00 25 1017.9
20260502013516 63 315 4.0 8.0 0.00 0.00 0.00 25 1017.8
20260502013016 64 315 4.0 11.0 0.00 0.00 0.00 25 1017.8
20260502012516 64 315 5.0 9.0 0.00 0.00 0.00 25 1017.8
20260502012016 64 0 4.0 9.0 0.00 0.00 0.00 25 1017.8
20260502011516 64 315 6.0 10.0 0.00 0.00 0.00 25 1017.7
20260502011016 64 315 5.0 12.0 0.00 0.00 0.00 25 1017.4
20260502010516 64 338 5.0 10.0 0.00 0.00 0.00 24 1017.4
20260502010016 64 338 5.0 9.0 0.00 0.00 0.00 25 1017.5
20260502005516 64 315 6.0 11.0 0.00 0.00 0.00 25 1017.4
20260502005016 65 338 6.0 11.0 0.00 0.00 0.00 24 1017.8
20260502004516 65 338 6.0 13.0 0.00 0.00 0.00 25 1017.7
20260502004016 65 338 6.0 11.0 0.00 0.00 0.00 25 1017.7
20260502003516 65 315 7.0 12.0 0.00 0.00 0.00 24 1017.7
20260502003016 65 315 5.0 11.0 0.00 0.00 0.00 23 1017.6
20260502002516 66 315 4.0 8.0 0.00 0.00 0.00 23 1017.7
20260502002016 65 0 5.0 10.0 0.00 0.00 0.00 25 1017.8
20260502001516 65 338 7.0 13.0 0.00 0.00 0.00 24 1017.8
20260502001016 65 315 6.0 13.0 0.00 0.00 0.00 23 1017.8
20260502000516 66 338 6.0 11.0 0.00 0.00 0.00 23 1018.2
20260502000016 65 315 6.0 12.0 0.00 0.00 0.00 23 1017.8
20260501235516 66 338 6.0 12.0 0.00 0.00 0.00 23 1018.2
20260501235016 65 315 5.0 10.0 0.00 0.00 0.00 23 1017.9
20260501234516 66 315 6.0 14.0 0.00 0.00 0.00 23 1017.9
20260501234016 66 0 6.0 11.0 0.00 0.00 0.00 23 1018.2
20260501233516 66 23 5.0 11.0 0.00 0.00 0.00 23 1018.2
20260501233016 66 0 7.0 15.0 0.00 0.00 0.00 23 1018.2
20260501232516 67 315 4.0 12.0 0.00 0.00 0.00 23 1018.1
20260501232016 66 0 4.0 11.0 0.00 0.00 0.00 22 1018.2
20260501231516 66 0 2.0 7.0 0.00 0.00 0.00 22 1018.2
20260501231016 66 23 7.0 14.0 0.00 0.00 0.00 22 1018.5
20260501230516 66 23 4.0 9.0 0.00 0.00 0.00 23 1018.6
20260501230016 65 338 5.0 10.0 0.00 0.00 0.00 21 1018.2
20260501225516 66 23 8.0 13.0 0.00 0.00 0.00 21 1018.6
20260501225016 66 0 6.0 12.0 0.00 0.00 0.00 21 1018.6
20260501224516 66 23 6.0 12.0 0.00 0.00 0.00 21 1018.5
20260501224016 66 0 8.0 14.0 0.00 0.00 0.00 21 1018.6
20260501223516 66 23 6.0 11.0 0.00 0.00 0.00 21 1018.6
20260501223016 66 0 6.0 11.0 0.00 0.00 0.00 22 1018.7
20260501222516 66 0 8.0 14.0 0.00 0.00 0.00 21 1018.8
20260501222016 66 45 4.0 10.0 0.00 0.00 0.00 21 1018.7
20260501221516 66 0 7.0 13.0 0.00 0.00 0.00 21 1018.8
20260501221016 66 0 7.0 14.0 0.00 0.00 0.00 21 1019.2
20260501220516 66 0 5.0 11.0 0.00 0.00 0.00 21 1019.1
20260501215516 66 338 7.0 12.0 0.00 0.00 0.00 22 1019.3
20260501215016 66 315 4.0 10.0 0.00 0.00 0.00 22 1019.3
20260501214516 66 315 5.0 11.0 0.00 0.00 0.00 22 1019.4
20260501214016 66 23 4.0 9.0 0.00 0.00 0.00 21 1019.7
20260501213516 66 23 5.0 11.0 0.00 0.00 0.00 21 1019.8
20260501213016 66 0 7.0 13.0 0.00 0.00 0.00 23 1019.9
20260501212516 65 23 4.0 8.0 0.00 0.00 0.00 21 1019.6
20260501212016 65 23 5.0 11.0 0.00 0.00 0.00 22 1019.7
20260501211516 66 338 6.0 11.0 0.00 0.00 0.00 20 1020.0
20260501211016 67 293 1.0 8.0 0.00 0.00 0.00 22 1020.0
20260501210516 66 0.0 3.0 0.00 0.00 0.00 22 1020.0
20260501210016 65 293 2.0 6.0 0.00 0.00 0.00 22 1019.8
20260501205516 65 0 2.0 7.0 0.00 0.00 0.00 25 1019.9
20260501205016 65 0 5.0 11.0 0.00 0.00 0.00 22 1019.8
20260501204516 65 0 4.0 9.0 0.00 0.00 0.00 22 1019.9
20260501204016 65 315 7.0 16.0 0.00 0.00 0.00 20 1020.3
20260501203516 65 0 5.0 10.0 0.00 0.00 0.00 23 1020.2
20260501203016 65 0 7.0 28.0 0.00 0.00 0.00 21 1019.9
20260501202516 64 315 3.0 28.0 0.00 0.00 0.00 23 1020.0
20260501202016 64 315 5.0 13.0 0.00 0.00 0.00 21 1020.0
20260501201516 65 45 5.0 9.0 0.00 0.00 0.00 22 1020.2
20260501201016 65 315 4.0 9.0 0.00 0.00 0.00 22 1020.3
20260501200516 64 68 3.0 8.0 0.00 0.00 0.00 23 1020.1
20260501200016 64 0 3.0 9.0 0.00 0.00 0.00 23 1020.2
20260501195516 64 0 2.0 8.0 0.00 0.00 0.00 23 1020.2
20260501195016 64 0 5.0 9.0 0.00 0.00 0.00 22 1020.2
20260501194516 64 0 4.0 8.0 0.00 0.00 0.00 22 1020.3
20260501194016 64 0 5.0 10.0 0.00 0.00 0.00 23 1021.0
20260501193516 64 0 4.0 9.0 0.00 0.00 0.00 21 1020.9
20260501193016 64 338 6.0 10.0 0.00 0.00 0.00 21 1021.0
20260501192516 63 270 2.0 6.0 0.00 0.00 0.00 23 1020.7
20260501192016 64 315 2.0 6.0 0.00 0.00 0.00 23 1021.1
20260501191516 64 315 2.0 6.0 0.00 0.00 0.00 21 1020.8
20260501191016 63 315 4.0 9.0 0.00 0.00 0.00 21 1021.2
20260501190516 63 315 3.0 7.0 0.00 0.00 0.00 22 1021.3
20260501190016 63 23 2.0 8.0 0.00 0.00 0.00 22 1021.2
20260501185516 63 0 2.0 5.0 0.00 0.00 0.00 21 1021.3
20260501185016 63 23 3.0 7.0 0.00 0.00 0.00 20 1021.4
20260501184516 63 45 2.0 9.0 0.00 0.00 0.00 22 1021.4
20260501184016 63 23 4.0 9.0 0.00 0.00 0.00 22 1021.5
20260501183516 62 45 1.0 7.0 0.00 0.00 0.00 24 1021.2
20260501183016 62 23 4.0 9.0 0.00 0.00 0.00 23 1021.2
20260501182516 62 45 3.0 9.0 0.00 0.00 0.00 23 1021.3
20260501182016 62 0 3.0 8.0 0.00 0.00 0.00 23 1021.3
20260501181516 62 0 3.0 7.0 0.00 0.00 0.00 27 1021.5
20260501181016 61 0 3.0 9.0 0.00 0.00 0.00 24 1021.7
20260501180516 61 0 1.0 4.0 0.00 0.00 0.00 27 1021.8
20260501180016 61 0 3.0 9.0 0.00 0.00 0.00 26 1021.6
20260501175516 61 0 3.0 7.0 0.00 0.00 0.00 28 1021.9
20260501175016 61 0 2.0 6.0 0.00 0.00 0.00 26 1021.6
20260501174516 60 0 1.0 6.0 0.00 0.00 0.00 27 1021.7
20260501174016 60 0 3.0 7.0 0.00 0.00 0.00 26 1021.8
20260501173516 60 0 3.0 6.0 0.00 0.00 0.00 27 1021.8
20260501173016 60 338 3.0 8.0 0.00 0.00 0.00 27 1021.8
20260501172516 60 338 2.0 7.0 0.00 0.00 0.00 28 1021.9
20260501172016 60 338 4.0 8.0 0.00 0.00 0.00 28 1021.9
20260501171516 59 338 1.0 4.0 0.00 0.00 0.00 30 1021.9
20260501171016 59 0 2.0 5.0 0.00 0.00 0.00 30 1021.9
20260501170516 59 338 3.0 6.0 0.00 0.00 0.00 29 1021.9
20260501170016 59 338 1.0 3.0 0.00 0.00 0.00 32 1021.9
20260501165516 58 338 1.0 5.0 0.00 0.00 0.00 31 1021.6
20260501165016 59 338 3.0 8.0 0.00 0.00 0.00 28 1021.9
20260501164516 59 338 1.0 7.0 0.00 0.00 0.00 31 1021.9
20260501164016 58 338 1.0 4.0 0.00 0.00 0.00 32 1021.9
20260501163516 58 338 2.0 8.0 0.00 0.00 0.00 32 1022.0
20260501163016 58 338 3.0 7.0 0.00 0.00 0.00 32 1021.9
20260501162016 58 315 1.0 3.0 0.00 0.00 0.00 35 1021.9
20260501161516 57 315 1.0 3.0 0.00 0.00 0.00 36 1021.9
20260501161016 57 0.0 3.0 0.00 0.00 0.00 35 1022.2
20260501160516 57 0.0 3.0 0.00 0.00 0.00 36 1022.2
20260501160016 56 315 1.0 4.0 0.00 0.00 0.00 38 1022.0
20260501155516 56 0.0 2.0 0.00 0.00 0.00 40 1021.9
20260501154016 54 0.0 2.0 0.00 0.00 0.00 40 1022.0
20260501153516 54 315 1.0 3.0 0.00 0.00 0.00 40 1022.0
20260501153016 54 0.0 3.0 0.00 0.00 0.00 41 1022.0
20260501152516 54 0.0 0.0 0.00 0.00 0.00 42 1022.0
20260501152016 54 0.0 0.0 0.00 0.00 0.00 42 1022.1
20260501151516 53 0.0 1.0 0.00 0.00 0.00 44 1022.1
20260501151016 53 0.0 2.0 0.00 0.00 0.00 44 1022.0
20260501150516 52 0.0 1.0 0.00 0.00 0.00 44 1021.7
20260501150016 52 0.0 2.0 0.00 0.00 0.00 45 1021.8
20260501145516 51 0.0 2.0 0.00 0.00 0.00 44 1021.8
20260501145016 51 0.0 2.0 0.00 0.00 0.00 45 1021.8
20260501144516 50 0.0 1.0 0.00 0.00 0.00 46 1021.4
20260501144016 50 0.0 2.0 0.00 0.00 0.00 47 1021.4
20260501143516 49 0.0 0.0 0.00 0.00 0.00 48 1021.4
20260501143016 48 0.0 1.0 0.00 0.00 0.00 49 1021.4
20260501142516 48 0.0 0.0 0.00 0.00 0.00 50 1021.3
20260501142016 47 0.0 1.0 0.00 0.00 0.00 51 1021.0
20260501141516 47 0.0 0.0 0.00 0.00 0.00 51 1020.9
20260501141016 46 0.0 0.0 0.00 0.00 0.00 52 1020.9
20260501140516 46 0.0 0.0 0.00 0.00 0.00 52 1021.0
20260501140016 46 0.0 0.0 0.00 0.00 0.00 53 1021.0
20260501135516 45 0.0 0.0 0.00 0.00 0.00 55 1020.9
20260501135016 45 0.0 0.0 0.00 0.00 0.00 58 1020.5
20260501134516 44 0.0 0.0 0.00 0.00 0.00 60 1020.5